Weather in Sosnovskoe

Russia / Sverdlovsk Oblast     56°25′56″N   61°14′37″E
temp.,
°C
wind,
m/s
gust,
m/s
humid.,
%
clouds,
%
prec.,
mm/h
press.,
hPa
HPBL,
m
20 april, tue
tue2023:00−2ene23530 0.0 103460
02:00−3sse22542 0.0 103526
05:00−3sw225313 0.0 103529
08:000w24415 0.0 1035307
11:00+5wnw353010 0.0 10331447
14:00+8wnw46275 0.0 10311703
17:00+9nw56300 0.0 10291720
20:00+5wnw36550 0.0 1029104
21 april, wed
wed2123:00+2wnw39680 0.0 1030187
02:000wnw38750 0.0 1031149
05:00−1wnw25790 0.0 103198
08:00+3nw23620 0.0 1032236
11:00+9nnw22450 0.0 1032888
14:00+12n11360 0.0 10311368
17:00+12e21350 0.0 10311439
20:00+9sse22510 0.0 103214
22 april, thu
thu2223:00+6s22615 0.0 103323
02:00+4s23664 0.0 103448
05:00+3s267156 0.0 1034106
08:00+7sse3856100 0.0 1034274
11:00+11s5837100 0.0 10341032
14:00+13s6933100 0.0 10331443
17:00+11s5940100 0.0 10331055
20:00+10s41047100 0.0 1033409
23 april, fri
fri2323:00+6s3126196 0.0 1033307
02:00+5s31165100 0.0 1032309
05:00+4s2871100 0.0 1032188
08:00+6s3463100 0.0 1032195
11:00+8ssw4862100 0.1 10321043
14:00+8ssw5972100 0.3 10311091
17:00+11sw3660100 0.6 10311339
20:00+8nnw0079100 0.4 103111
24 april, sat
sat2423:00+7e0180100 0.5 103012
02:00+7ese2582100 0.1 1028136
05:00+7se2692100 0.9 1028190
08:00+6ese2694100 0.8 1027210
11:00+8sse3784100 1.4 1025769
14:00+9sse4770100 0.5 10241134
17:00+9se5859100 0.9 10231407
20:00+7se4779100 0.1 1022935